Wind_Speed
15 15 14 14 14 13 12 12 11 11 11 10 11 10 10 9 9 9 8 8 8 7 7 6 6 6 6 5 5 4 4 3 3 3 3 3 3 4 4 5 6 6 6
16 16 16 16 15 15 14 13 12 13 12 11 11 11 11 10 10 9 8 8 8 8 7 7 6 6 6 6 5 4 4 3 2 2 2 2 2 3 4 4 5 5 6
18 18 17 17 17 17 16 15 14 14 13 13 12 12 12 11 11 10 9 8 8 7 7 7 7 6 6 6 5 5 4 3 3 2 1 1 2 2 3 4 4 5 5
20 19 19 18 18 18 17 16 16 15 14 13 13 13 13 13 12 11 11 9 8 8 7 7 7 6 6 6 5 5 4 3 3 2 1 1 1 2 3 3 4 4 5
21 21 21 20 20 20 19 18 17 17 16 15 14 14 14 14 13 12 12 11 10 9 8 7 7 7 6 6 5 5 4 3 3 2 2 1 1 1 2 2 3 4 5
23 23 23 22 22 21 21 20 19 19 18 17 16 15 15 15 14 13 13 12 11 10 9 8 7 7 7 6 6 5 5 4 4 3 2 1 1 1 2 2 3 4 5
25 25 25 24 24 23 23 22 21 21 20 19 18 18 17 16 15 14 13 13 12 11 10 9 8 8 7 7 6 6 6 5 4 3 3 2 2 2 2 3 3 4 5
27 27 27 26 26 26 25 24 23 23 22 21 20 19 18 17 17 16 15 14 13 13 12 11 10 9 8 7 7 7 6 6 5 4 4 3 2 2 3 3 4 4 5
30 29 29 29 28 28 27 27 26 25 24 23 22 21 20 19 19 18 17 15 14 14 13 12 11 11 10 9 8 8 8 7 6 6 5 4 4 3 3 4 4 5 5
32 32 31 31 30 30 29 29 28 28 27 26 25 23 22 22 21 20 19 17 16 15 15 14 13 12 12 11 10 9 9 8 7 7 7 6 5 5 4 5 5 5 5
34 34 34 34 33 32 32 31 31 30 30 29 27 26 25 24 23 23 21 20 18 17 17 16 15 14 14 13 12 11 10 10 9 8 8 8 7 6 6 5 5 5 6
36 35 35 35 35 34 34 33 33 32 31 31 30 28 27 26 25 24 24 23 21 20 19 18 17 16 16 15 14 13 12 12 11 10 9 9 9 8 7 6 6 6 6
37 37 37 37 37 37 36 35 35 34 33 33 32 31 30 28 27 26 25 25 24 23 21 20 19 18 18 17 16 15 14 13 13 12 11 10 10 10 9 8 8 7 7
40 40 39 40 40 39 39 38 37 36 35 35 34 34 33 31 30 29 27 26 26 25 24 22 21 21 20 19 17 16 15 14 14 13 12 12 11 11 11 10 9 8 8
42 42 42 41 42 41 41 41 40 39 38 37 37 36 35 34 33 32 30 28 27 27 26 25 24 23 21 20 19 18 17 16 15 15 14 13 12 12 12 11 10 10 9
44 44 44 43 43 43 43 43 42 42 41 40 40 39 38 37 36 34 33 32 30 29 28 27 26 25 24 22 21 20 19 18 17 16 15 15 14 13 13 13 12 12 11
45 46 46 45 45 45 45 44 44 44 43 42 42 41 40 39 39 37 35 34 33 32 31 30 29 28 26 24 23 23 22 20 19 19 18 17 16 15 14 14 13 13 13
46 47 47 47 46 47 47 46 46 46 45 44 44 43 43 42 41 40 39 37 35 34 32 31 31 30 29 27 26 25 24 23 21 21 20 19 18 17 17 16 15 14 14
46 47 48 48 47 47 47 48 48 48 47 46 46 45 44 44 43 41 40 40 38 37 35 34 33 32 31 30 29 27 26 25 23 22 22 21 20 19 19 18 17 17 15
47 48 49 48 48 48 48 49 49 50 50 49 48 47 46 45 44 43 42 41 41 40 38 37 36 35 33 32 31 30 29 27 26 24 23 23 22 21 20 20 19 18 17
48 49 49 50 49 49 49 50 50 50 51 51 50 50 49 48 47 46 44 42 42 41 41 40 39 37 35 34 33 33 31 30 29 27 26 25 24 23 22 22 21 20 20
47 49 50 50 49 49 50 50 50 51 51 52 51 51 51 50 49 48 48 45 44 43 42 41 41 40 38 37 35 35 34 33 31 30 28 27 26 25 24 23 22 22 22
47 49 50 51 51 50 51 51 51 52 53 53 53 52 52 52 51 49 49 48 47 45 44 43 42 41 40 38 37 37 36 35 34 32 31 29 28 27 26 24 24 23 22
46 48 50 50 51 50 51 52 51 51 51 52 53 52 52 52 52 51 50 50 49 48 47 45 44 42 41 40 39 38 38 37 36 35 34 32 30 29 28 27 26 24 23
46 48 50 50 50 50 50 52 52 51 50 51 52 53 53 53 53 53 52 51 50 50 49 48 46 44 43 42 41 40 39 39 38 37 36 34 33 32 30 29 29 28 26
44 46 48 49 49 50 50 50 51 52 51 51 52 53 53 53 53 54 54 53 52 50 49 49 49 47 45 44 43 41 40 40 38 38 38 37 35 34 33 32 31 30 30
Wind_Direction
223 222 220 217 217 215 212 211 208 204 201 197 194 191 189 184 181 175 171 173 173 169 167 164 162 159 160 161 158 157 155 143 129 113 95 81 67 54 42 38 37 35 32
226 225 224 221 220 219 217 215 212 210 206 200 198 194 192 191 189 187 182 179 179 179 177 173 169 165 166 170 168 168 166 162 151 131 107 86 63 45 35 31 32 29 28
228 226 226 224 223 221 219 217 215 214 210 206 202 200 197 195 196 195 194 189 186 184 183 179 176 170 170 174 174 174 175 173 171 161 135 98 54 34 30 28 29 27 26
229 227 226 226 224 221 220 219 217 217 216 212 208 204 203 201 201 201 199 198 195 190 184 184 181 180 178 178 179 180 183 183 182 184 178 163 30 21 24 25 27 22 19
231 229 228 227 226 224 223 221 219 220 220 218 213 208 206 205 204 204 202 201 199 196 193 191 190 189 189 190 191 190 193 196 198 201 201 224 288 338 356 7 12 10 6
234 232 230 229 228 225 225 224 222 221 221 220 217 212 209 206 205 206 205 203 203 203 202 202 201 200 201 203 205 207 209 209 211 217 224 241 269 303 328 343 352 355 355
235 234 232 231 230 227 226 225 225 224 223 222 219 216 213 208 207 210 210 209 208 209 210 210 210 210 207 210 212 214 215 211 212 220 228 237 260 289 311 326 340 346 349
237 236 234 232 231 230 228 227 225 224 223 222 222 220 218 214 211 213 213 214 214 215 216 216 214 214 213 215 217 218 222 221 220 226 232 236 255 281 294 306 317 331 336
238 238 237 235 233 232 231 228 226 226 225 224 223 223 221 219 216 216 217 218 219 219 219 218 218 218 219 221 220 220 224 228 228 231 233 238 252 272 284 295 309 318 325
240 239 238 237 235 233 233 232 229 228 227 226 225 225 224 222 221 220 221 222 223 223 223 224 224 222 224 226 225 225 227 228 232 236 237 241 250 264 277 289 305 314 318
240 239 239 238 237 235 234 234 232 230 229 228 227 226 225 225 225 224 224 225 226 226 226 227 228 227 229 230 230 232 234 232 234 240 241 243 251 260 270 283 296 305 312
241 240 239 239 238 237 235 235 234 232 231 230 229 228 227 227 227 227 226 227 228 229 229 229 229 230 231 232 233 234 235 236 238 240 244 246 251 258 264 273 282 292 304
241 241 240 239 239 238 236 235 234 233 232 232 230 230 230 229 229 230 230 230 230 231 231 231 231 231 231 234 235 235 236 238 239 242 244 248 251 255 260 267 273 281 291
240 240 240 239 239 239 237 236 234 233 233 233 233 232 232 232 231 231 232 232 232 232 232 232 232 233 233 233 234 235 236 238 240 243 247 249 252 255 258 264 269 275 283
240 239 239 239 239 239 238 236 235 234 233 234 234 234 233 233 232 232 233 233 233 233 232 231 232 233 233 232 234 235 237 239 242 245 247 250 251 253 256 260 265 271 277
240 240 240 239 239 239 239 237 237 236 235 234 234 234 234 234 233 233 233 233 233 233 233 232 232 232 233 232 234 237 238 240 243 245 247 250 252 255 257 260 263 269 276
241 239 240 240 239 239 239 237 236 236 235 234 235 234 235 235 234 234 234 234 233 233 233 232 232 232 232 233 235 237 240 241 243 245 247 249 252 255 257 260 263 267 273
241 239 239 240 240 239 239 237 236 236 235 234 234 234 234 234 234 234 234 234 234 233 233 233 232 233 233 234 235 238 240 242 242 244 246 248 251 254 257 261 263 265 269
242 241 239 239 239 239 238 237 236 235 235 234 234 234 234 234 234 234 235 235 235 234 234 235 235 234 234 233 235 237 240 242 243 244 246 249 252 254 255 258 261 264 266
242 241 239 239 238 238 237 236 235 235 235 234 234 234 234 233 233 234 235 235 235 235 235 236 237 236 235 234 235 237 239 241 243 244 246 249 251 253 254 256 260 262 263
242 240 239 239 237 236 236 236 235 235 235 235 235 234 234 234 233 233 234 235 235 235 236 236 237 237 236 236 236 237 238 240 243 244 246 248 250 252 254 257 258 261 262
241 240 238 238 238 237 236 235 234 234 235 235 234 234 234 234 234 234 234 235 234 235 235 236 237 237 237 237 238 238 239 240 242 244 245 247 249 251 253 256 257 260 260
241 240 239 238 239 239 237 235 234 234 235 235 234 234 234 234 234 235 235 235 234 234 235 235 236 236 237 237 238 239 239 240 242 244 245 247 248 250 251 255 257 259 261
240 239 238 237 238 238 237 236 235 234 235 234 235 235 234 235 234 234 235 235 234 234 235 235 235 236 237 237 237 238 239 241 243 244 245 246 247 248 249 252 255 257 260
240 239 238 237 237 237 237 236 236 234 235 233 233 234 234 234 234 234 234 233 233 233 234 235 235 236 237 237 237 239 239 240 242 243 244 245 247 248 249 251 254 255 258
240 239 238 236 236 237 237 237 237 236 235 234 232 232 232 233 233 233 233 233 232 233 234 234 235 235 236 237 237 238 239 239 241 243 244 244 245 247 249 251 254 255 257
Height
5854 5854 5855 5856 5857 5858 5859 5860 5860 5861 5861 5862 5863 5863 5864 5865 5866 5866 5866 5867 5867 5868 5868 5869 5869 5869 5870 5870 5870 5870 5871 5871 5871 5871 5870 5870 5870 5869 5868 5867 5867 5866 5865
5851 5852 5853 5854 5855 5856 5857 5858 5859 5860 5860 5861 5862 5862 5863 5864 5865 5865 5866 5866 5867 5867 5868 5868 5869 5869 5869 5870 5870 5870 5870 5871 5871 5871 5870 5870 5870 5869 5869 5868 5867 5866 5865
5848 5849 5851 5852 5853 5854 5855 5856 5857 5858 5859 5860 5860 5861 5862 5863 5864 5864 5865 5866 5866 5867 5867 5868 5868 5869 5869 5870 5870 5870 5870 5870 5870 5871 5870 5870 5870 5869 5869 5868 5867 5866 5865
5845 5847 5848 5849 5850 5851 5852 5854 5855 5856 5857 5858 5859 5859 5860 5861 5862 5863 5864 5864 5865 5866 5867 5867 5868 5868 5869 5869 5869 5870 5870 5870 5870 5870 5870 5870 5869 5869 5869 5868 5867 5866 5865
5842 5843 5845 5846 5847 5848 5850 5851 5852 5854 5855 5856 5857 5858 5859 5859 5860 5861 5862 5863 5864 5865 5866 5866 5867 5867 5868 5868 5869 5869 5869 5870 5870 5870 5869 5869 5869 5869 5868 5867 5867 5866 5865
5838 5840 5841 5843 5844 5845 5847 5848 5850 5851 5852 5853 5855 5856 5856 5858 5859 5860 5860 5861 5863 5864 5864 5865 5866 5867 5867 5868 5868 5868 5869 5869 5869 5869 5869 5869 5868 5868 5868 5867 5866 5866 5865
5834 5835 5837 5839 5840 5841 5843 5845 5846 5848 5849 5850 5852 5853 5854 5855 5857 5858 5859 5860 5861 5862 5863 5864 5864 5865 5866 5867 5867 5868 5868 5868 5868 5868 5868 5868 5868 5867 5867 5867 5866 5865 5864
5829 5831 5832 5834 5836 5837 5839 5841 5842 5844 5846 5847 5849 5850 5852 5853 5854 5855 5857 5858 5859 5860 5861 5862 5863 5864 5864 5865 5866 5866 5867 5867 5867 5867 5867 5867 5867 5867 5866 5866 5865 5865 5864
5823 5825 5827 5829 5830 5832 5834 5836 5838 5839 5841 5843 5845 5847 5848 5850 5851 5853 5854 5855 5856 5857 5859 5860 5860 5862 5862 5863 5864 5865 5865 5865 5866 5866 5866 5866 5866 5866 5865 5865 5864 5864 5863
5816 5819 5821 5823 5825 5827 5829 5831 5832 5834 5837 5839 5841 5842 5844 5846 5848 5849 5851 5852 5853 5855 5856 5857 5858 5859 5860 5861 5862 5863 5863 5864 5864 5864 5864 5865 5864 5864 5864 5864 5863 5863 5862
5809 5811 5814 5816 5818 5820 5823 5825 5827 5829 5831 5833 5836 5838 5840 5842 5843 5845 5847 5849 5850 5852 5853 5854 5856 5857 5858 5859 5860 5860 5861 5861 5862 5862 5863 5863 5863 5863 5863 5862 5862 5862 5861
5801 5804 5806 5809 5811 5813 5816 5818 5821 5823 5825 5828 5830 5833 5835 5837 5839 5841 5843 5845 5846 5848 5849 5851 5852 5853 5855 5856 5857 5858 5859 5859 5860 5860 5860 5861 5861 5861 5861 5861 5860 5860 5860
5792 5795 5798 5800 5803 5805 5808 5811 5814 5816 5819 5821 5824 5827 5829 5831 5834 5836 5838 5840 5842 5843 5845 5847 5848 5850 5851 5852 5854 5855 5856 5856 5857 5858 5858 5859 5859 5859 5859 5859 5859 5859 5858
5782 5785 5788 5791 5794 5797 5800 5803 5806 5809 5812 5814 5817 5820 5823 5826 5828 5830 5833 5835 5837 5839 5841 5842 5844 5846 5847 5849 5850 5851 5852 5853 5854 5855 5855 5856 5856 5857 5857 5857 5857 5857 5857
5771 5774 5778 5781 5785 5788 5791 5794 5797 5801 5804 5807 5810 5813 5816 5819 5822 5824 5827 5829 5831 5834 5836 5837 5839 5841 5843 5845 5846 5848 5849 5850 5851 5852 5853 5853 5854 5854 5854 5854 5855 5855 5854
5760 5763 5766 5770 5774 5777 5781 5784 5788 5792 5795 5798 5801 5805 5808 5811 5814 5817 5820 5823 5825 5828 5830 5832 5834 5836 5838 5840 5842 5843 5845 5846 5847 5848 5849 5850 5851 5851 5851 5852 5852 5852 5852
5748 5751 5755 5758 5762 5766 5770 5774 5778 5782 5785 5788 5792 5796 5799 5803 5806 5810 5813 5815 5818 5821 5824 5826 5828 5830 5833 5835 5837 5838 5840 5841 5843 5844 5845 5846 5847 5848 5848 5849 5849 5849 5849
5736 5739 5743 5746 5750 5754 5758 5763 5767 5771 5775 5778 5782 5786 5790 5794 5798 5801 5805 5808 5811 5814 5817 5819 5822 5824 5827 5829 5831 5833 5835 5836 5838 5839 5841 5842 5843 5844 5845 5845 5845 5846 5846
5723 5727 5730 5734 5738 5742 5746 5751 5755 5760 5764 5768 5772 5776 5780 5784 5788 5792 5796 5800 5803 5806 5809 5812 5815 5818 5820 5823 5825 5827 5829 5831 5833 5834 5836 5837 5839 5840 5841 5841 5842 5842 5842
5710 5714 5717 5721 5726 5730 5734 5739 5743 5748 5752 5757 5762 5766 5770 5775 5779 5783 5787 5791 5794 5798 5801 5804 5807 5810 5813 5816 5818 5821 5823 5825 5827 5829 5831 5832 5834 5835 5836 5837 5838 5838 5838
5697 5700 5705 5709 5713 5717 5722 5727 5731 5736 5740 5745 5750 5755 5759 5764 5768 5773 5777 5781 5785 5789 5792 5796 5798 5801 5805 5808 5811 5814 5816 5819 5821 5824 5825 5827 5829 5830 5831 5832 5833 5833 5833
5684 5688 5692 5696 5700 5705 5710 5714 5719 5724 5728 5733 5738 5743 5748 5753 5757 5762 5766 5771 5775 5779 5783 5786 5790 5793 5796 5800 5803 5806 5809 5812 5814 5817 5819 5821 5823 5824 5826 5827 5828 5828 5829
5671 5675 5679 5684 5688 5692 5697 5701 5706 5710 5715 5720 5726 5731 5736 5740 5746 5751 5755 5760 5765 5769 5773 5776 5780 5784 5788 5791 5794 5798 5801 5805 5807 5810 5812 5815 5817 5818 5820 5821 5822 5823 5823
5659 5663 5667 5671 5676 5679 5683 5689 5693 5698 5703 5708 5713 5719 5723 5728 5734 5739 5744 5748 5753 5758 5762 5766 5770 5774 5778 5782 5785 5789 5793 5797 5800 5803 5805 5808 5810 5812 5813 5815 5816 5817 5818
5646 5650 5654 5659 5663 5667 5671 5676 5680 5685 5690 5695 5700 5706 5711 5716 5721 5727 5732 5736 5741 5746 5751 5756 5760 5764 5768 5772 5776 5780 5784 5788 5791 5794 5797 5800 5803 5805 5806 5808 5809 5811 5812
5634 5638 5642 5646 5651 5655 5659 5663 5668 5672 5677 5682 5687 5693 5698 5704 5709 5714 5719 5724 5730 5735 5740 5745 5749 5754 5758 5763 5767 5771 5775 5779 5782 5786 5789 5792 5794 5797 5799 5801 5802 5804 5805